DW6706 Weather Reports


time (UTC)temp
C
wind
direction
speed
KPH
gust
KPH
rain 1hr
cm
rain 24hr
cm
rain mn
cm
humidity
%
barometer
mb
20260505202535 28 80 3.2 9.7 0.00 0.00 0.00 80 1007.0
20260505200535 28 76 0.0 3.2 0.00 0.00 0.00 81 1007.3
20260505195535 28 360 0.0 6.4 0.00 0.00 0.00 80 1007.5
20260505193535 28 27 3.2 9.7 0.00 0.00 0.00 80 1007.8
20260505191535 28 11 0.0 8.0 0.00 0.00 0.00 81 1007.8
20260505190535 27 31 4.8 8.0 0.00 0.00 0.00 81 1007.8
20260505185535 27 5 0.0 8.0 0.00 0.00 0.00 83 1007.8
20260505183535 27 333 0.0 8.0 0.00 0.00 0.00 84 1008.0
20260505182535 26 32 3.2 6.4 0.00 0.00 0.00 84 1008.2
20260505180535 26 355 3.2 8.0 0.00 0.00 0.00 84 1008.4
20260505175535 26 63 1.6 3.2 0.00 0.00 0.00 85 1008.3
20260505174535 26 32 0.0 4.8 0.00 0.00 0.00 86 1008.5
20260505173535 26 325 0.0 6.4 0.00 0.00 0.00 86 1008.6
20260505172535 26 355 0.0 3.2 0.00 0.00 0.00 86 1008.5
20260505171535 26 12 1.6 8.0 0.00 0.00 0.00 85 1008.6
20260505165535 26 80 0.0 3.2 0.00 0.00 0.00 86 1008.8
20260505164535 26 33 0.0 6.4 0.00 0.00 0.00 86 1008.8
20260505163535 26 38 0.0 3.2 0.00 0.00 0.00 87 1008.8
20260505162535 25 277 0.0 6.4 0.00 0.00 0.00 87 1008.8
20260505160535 25 265 1.6 8.0 0.00 0.00 0.00 87 1008.7
20260505152535 25 5 1.6 8.0 0.00 0.00 0.00 88 1008.5
20260505150535 24 51 0.0 8.0 0.00 0.00 0.00 88 1008.3
20260505140535 23 68 0.0 4.8 0.00 0.00 0.00 90 1008.3
20260505123534 22 47 0.0 1.6 0.00 0.00 0.00 93 1007.7
20260505122535 21 47 0.0 3.2 0.00 0.00 0.00 93 1008.0
20260505115535 21 39 0.0 1.6 0.00 0.00 0.00 92 1007.6
20260505114534 21 39 0.0 0.0 0.00 0.00 0.00 92 1007.7
20260505113534 21 39 0.0 0.0 0.00 0.00 0.00 92 1007.5
20260505112534 21 39 0.0 0.0 0.00 0.00 0.00 92 1007.8
20260505111535 21 39 0.0 0.0 0.00 0.00 0.00 92 1007.8
20260505110534 21 39 0.0 0.0 0.00 0.00 0.00 92 1007.6
20260505100534 21 40 0.0 0.0 0.00 0.00 0.00 91 1007.7
20260505095534 21 40 0.0 0.0 0.00 0.00 0.00 91 1007.8
20260505094534 21 40 0.0 0.0 0.00 0.00 0.00 91 1007.9
20260505093534 21 40 0.0 0.0 0.00 0.00 0.00 91 1007.8
20260505092534 21 40 0.0 0.0 0.00 0.00 0.00 91 1007.8
20260505091535 21 40 0.0 0.0 0.00 0.00 0.00 91 1008.1
20260505090534 21 40 0.0 0.0 0.00 0.00 0.00 90 1008.1
20260505084534 21 40 0.0 0.0 0.00 0.00 0.00 90 1008.1
20260505083534 21 40 0.0 0.0 0.00 0.00 0.00 90 1008.2
20260505082534 21 40 0.0 0.0 0.00 0.00 0.00 89 1008.3
20260505081534 21 40 0.0 0.0 0.00 0.00 0.00 89 1008.5
20260505074534 21 40 0.0 0.0 0.00 0.00 0.00 89 1008.7
20260505073535 21 40 0.0 0.0 0.00 0.00 0.00 89 1008.7
20260505072534 21 40 0.0 1.6 0.00 0.00 0.00 89 1008.7
20260505071534 21 40 0.0 0.0 0.00 0.00 0.00 89 1008.8
20260505070534 21 40 0.0 1.6 0.00 0.00 0.00 89 1009.0
20260505064534 21 40 0.0 1.6 0.00 0.00 0.00 88 1009.1
20260505063534 21 40 0.0 0.0 0.00 0.00 0.00 88 1009.1
20260505062534 21 40 0.0 1.6 0.00 0.00 0.00 88 1009.2
20260505061534 21 40 0.0 0.0 0.00 0.00 0.00 88 1009.2
20260505060534 21 40 0.0 1.6 0.00 0.00 0.00 88 1009.4
20260505055534 21 39 0.0 0.0 0.00 0.00 0.00 88 1009.6
20260505053534 21 39 0.0 1.6 0.00 0.00 0.00 87 1009.5
20260505052534 21 39 0.0 1.6 0.00 0.00 0.00 87 1009.8
20260505051534 21 39 0.0 0.0 0.00 0.00 0.00 87 1009.9
20260505050534 21 39 0.0 1.6 0.00 0.00 0.00 87 1009.9
20260505041534 22 39 0.0 1.6 0.00 0.00 0.00 85 1009.9
20260505034534 22 40 0.0 3.2 0.00 0.00 0.00 85 1010.0
20260505033534 22 83 0.0 3.2 0.00 0.00 0.00 85 1010.0
20260505031534 22 61 0.0 3.2 0.00 0.00 0.00 84 1010.2
20260505030534 22 61 0.0 1.6 0.00 0.00 0.00 83 1010.1
20260505025534 22 79 1.6 3.2 0.00 0.00 0.00 83 1010.0
20260505024534 22 68 0.0 3.2 0.00 0.00 0.00 83 1009.8
20260505022534 23 69 0.0 6.4 0.00 0.00 0.00 82 1009.9
20260505020534 23 28 0.0 6.4 0.00 0.00 0.00 82 1009.7
20260505015534 23 90 1.6 3.2 0.00 0.00 0.00 82 1009.7
20260505014534 23 90 0.0 3.2 0.00 0.00 0.00 81 1009.6
20260505013534 23 51 0.0 8.0 0.00 0.00 0.00 81 1009.5
20260505012534 23 84 1.6 1.6 0.00 0.00 0.00 81 1009.3
20260505011534 23 84 0.0 4.8 0.00 0.00 0.00 80 1009.2
20260505010534 23 88 0.0 1.6 0.00 0.00 0.00 80 1009.3
20260505005534 24 88 0.0 1.6 0.00 0.00 0.00 79 1009.3
20260505004534 24 88 1.6 1.6 0.00 0.00 0.00 78 1009.2
20260505003534 24 88 0.0 3.2 0.00 0.00 0.00 77 1009.3
20260505002534 25 66 3.2 8.0 0.00 0.00 0.00 77 1009.0
20260505001534 25 50 0.0 0.0 0.00 0.00 0.00 76 1009.3
20260504235534 25 50 0.0 4.8 0.00 0.00 0.00 75 1009.5
20260504234533 25 74 0.0 3.2 0.00 0.00 0.00 74 1009.3
20260504233533 26 95 1.6 9.7 0.00 0.00 0.00 74 1009.2
20260504232533 26 5 0.0 3.2 0.00 0.00 0.00 72 1009.5
20260504231534 26 48 0.0 3.2 0.00 0.00 0.00 71 1009.6
20260504230533 26 51 0.0 3.2 0.00 0.00 0.00 72 1009.8
20260504225533 26 17 1.6 6.4 0.00 0.00 0.00 72 1009.9
20260504224533 26 20 1.6 3.2 0.00 0.00 0.00 72 1009.7
20260504223533 26 75 1.6 6.4 0.00 0.00 0.00 69 1009.9
20260504222534 26 5 0.0 3.2 0.00 0.00 0.00 71 1010.0
20260504221533 27 85 0.0 8.0 0.00 0.00 0.00 69 1010.1
20260504220533 27 72 0.0 3.2 0.00 0.00 0.00 68 1010.2
20260504215533 27 57 0.0 0.0 0.00 0.00 0.00 67 1010.2
20260504214534 27 56 0.0 1.6 0.00 0.00 0.00 67 1010.4
20260504212533 27 78 0.0 6.4 0.00 0.00 0.00 64 1010.6
20260504211534 27 345 1.6 6.4 0.00 0.00 0.00 66 1010.7
20260504210533 27 251 0.0 9.7 0.00 0.00 0.00 66 1010.9
20260504205533 27 338 0.0 3.2 0.00 0.00 0.00 65 1011.0